Regional Weather Roundup
Issued by NWS Jackson, KY

Home | Current Version | Previous Version | Text Only | Print | Product List | Glossary Off
Versions: 1 2 3 4 5 6 7 8 9 10 11 12 13 14 15 16 17 18 19 20 21 22 23 24 25 26 27

000
ASUS43 KJKL 251110
RWRJKL

EAST KENTUCKY HOURLY WEATHER ROUNDUP
NATIONAL WEATHER SERVICE JACKSON KY
700 AM EDT THU AUG 25 2016

NOTE: "FAIR" INDICATES FEW OR NO CLOUDS BELOW 12,000 FEET WITH
NO SIGNIFICANT WEATHER AND/OR OBSTRUCTIONS TO VISIBILITY.

* THESE REPORTS ARE NOT UNDER NWS QUALITY CONTROL AND MAY NOT
  REPORT WEATHER SUCH AS PRECIPITATION AND FOG.

KYZ079-080-083-085-087-088-110-112-115-119-120-251200
...EASTERN KENTUCKY...

CITY           SKY/WX    TMP DP  RH WIND       PRES   REMARKS
JACKSON        CLEAR     72  69  90 CALM      30.18S
LONDON         CLEAR     69  67  93 CALM      30.19R FOG
SOMERSET*      CLEAR     70  70 100 CALM      30.18R
MONTICELLO*    CLEAR    N/A N/A N/A W10       30.18S
WILLIAMSBURG*  SUNNY     68  68 100 SE3       30.19S
MIDDLESBORO*   PTCLDY    66  66 100 CALM      30.21S
HARLAN APT*    CLOUDY    68  66  94 CALM      30.22S
PIKE CO APT*     N/A     71  70  98 CALM      30.19S
BIG SANDY APT* PTSUNNY   73  71  92 S3        30.17S
MOREHEAD APT*  PTSUNNY   75  70  83 SW8       30.15S
ASHLAND*       CLEAR     73  72  94 CALM      30.09S
$$

KYZ035-036-041-042-044-050-067-078-099-251200
...CENTRAL KENTUCKY...

CITY           SKY/WX    TMP DP  RH WIND       PRES   REMARKS
MT STERLING*   CLEAR     72  72 100 SW5       30.16R
FLEMING/MASON* CLEAR     72  70  95 S5        30.13S
DANVILLE*      CLEAR     70  70 100 S6        30.16S
LEXINGTON      CLEAR     73  70  90 S7        30.14R
FRANKFORT      CLEAR     75  71  87 SW7       30.12R
LOUISVILLE     PTCLDY    79  73  82 S6        30.09S
LEBANON*         N/A     75  72  88 S3        30.14S
GLASGOW*       PTCLDY    73  73 100 CALM      30.14S
BOWLING GREEN  PTCLDY    76  72  87 S3        30.14R
$$

KYZ091>093-OHZ055-061-077-WVZ005-015-034-035-042-251200
...SOUTHERN OHIO/WEST VIRGINIA...

CITY           SKY/WX    TMP DP  RH WIND       PRES   REMARKS
COVINGTON      PTCLDY    76  74  93 SW7       30.09R
COLUMBUS       MOCLDY    72  71  97 S3        30.06S
DAYTON         MOCLDY    74  73  97 W7        30.08R
WILMINGTON     CLOUDY    74  73  97 S5        30.09R
HUNTINGTON     PTCLDY    75  70  84 S7        30.12S
CHARLESTON     CLOUDY    74  69  85 S6        30.13S
PINEVILLE*     HVY RAIN  66  64  91 MISG      30.26S
BECKLEY        MOCLDY    68  65  90 SW6       30.25S
BLUEFIELD      CLOUDY    66  63  90 W5        30.28S
LOGAN CO APT*  CLOUDY    72  68  88 CALM      30.18S
$$

VAZ002-007-008-TNZ017-027-036-066-071-251200
...SOUTHWEST VIRGINIA/EAST TENNESSEE...

CITY           SKY/WX    TMP DP  RH WIND       PRES   REMARKS
WISE*          CLEAR     68  66  94 SW5       30.28S
JONESVILLE*    FOG       66  66 100 CALM      30.25R VSB 3/4
ABINGDON*      MOCLDY    67  67 100 CALM      30.26S FOG
BRISTOL        MOCLDY    67  65  93 CALM      30.24R
MORRISTOWN*    PTSUNNY   72  70  94 CALM      30.22R
SEVIERVILLE*   CLOUDY    70  70 100 CALM      30.21R
KNOXVILLE      PTCLDY    72  69  90 S3        30.20R
OAK RIDGE      MOCLDY    74  70  87 CALM      30.21R
CROSSVILLE     MOCLDY    69  68  96 CALM      30.24R
NASHVILLE      PTCLDY    74  70  87 CALM      30.15R
$$

...KEY TO REMARKS...
VSB - VISIBILITY IN MILES
WCI - WIND CHILL INDEX
HX  - HEAT INDEX

$$




USA.gov is the U.S. government's official web portal to all federal, state and local government web resources and services.